Time,TemperatureF,DewpointF,PressureIn,WindDirection,WindDirectionDegrees,WindSpeedMPH,WindSpeedGustMPH,Humidity,HourlyPrecipIn,Conditions,Clouds,dailyrainin,SoftwareType,DateUTC
2013-01-15 00:02:00,67.0,64.0,30.03,SE,124,8.0,11.0,89,0.00,,,0.00,,2013-01-15 06:02:00,
2013-01-15 00:12:00,67.0,64.0,30.03,SE,124,8.0,11.0,89,0.00,,,0.00,,2013-01-15 06:12:00,
2013-01-15 00:22:00,66.0,63.0,30.03,SE,127,8.0,9.0,89,0.00,,,0.00,,2013-01-15 06:22:00,
2013-01-15 00:33:00,67.0,64.0,30.03,SE,131,8.0,10.0,89,0.00,,,0.00,,2013-01-15 06:33:00,
2013-01-15 00:42:00,67.0,64.0,30.03,SE,131,8.0,10.0,89,0.00,,,0.00,,2013-01-15 06:42:00,
2013-01-15 00:52:00,67.0,64.0,30.03,SE,146,8.0,11.0,89,0.00,,,0.00,,2013-01-15 06:52:00,
2013-01-15 01:02:00,66.0,63.0,30.03,SE,134,8.0,10.0,89,0.00,,,0.00,,2013-01-15 07:02:00,
2013-01-15 01:12:00,66.0,63.0,30.03,SE,134,8.0,10.0,89,0.00,,,0.00,,2013-01-15 07:12:00,
2013-01-15 01:22:00,66.0,63.0,30.03,SE,134,6.0,10.0,89,0.00,,,0.00,,2013-01-15 07:22:00,
2013-01-15 01:32:00,66.0,63.0,30.03,SE,137,5.0,8.0,89,0.00,,,0.00,,2013-01-15 07:32:00,
2013-01-15 01:42:00,66.0,63.0,30.03,SE,137,5.0,8.0,89,0.00,,,0.00,,2013-01-15 07:42:00,
2013-01-15 01:52:00,66.0,63.0,30.03,ESE,119,5.0,7.0,89,0.00,,,0.00,,2013-01-15 07:52:00,
2013-01-15 02:02:00,66.0,63.0,30.02,ESE,118,5.0,7.0,89,0.00,,,0.00,,2013-01-15 08:02:00,
2013-01-15 02:12:00,66.0,63.0,30.02,ESE,118,5.0,7.0,89,0.00,,,0.00,,2013-01-15 08:12:00,
2013-01-15 02:22:00,66.0,63.0,30.02,ESE,117,6.0,8.0,89,0.00,,,0.00,,2013-01-15 08:22:00,
2013-01-15 02:33:00,66.0,63.0,30.02,ESE,117,7.0,9.0,89,0.00,,,0.00,,2013-01-15 08:33:00,
2013-01-15 02:42:00,66.0,63.0,30.02,ESE,117,7.0,9.0,89,0.00,,,0.00,,2013-01-15 08:42:00,
2013-01-15 02:52:00,66.0,63.0,30.01,SE,126,8.0,9.0,89,0.00,,,0.00,,2013-01-15 08:52:00,
2013-01-15 03:02:00,66.0,63.0,30.01,SE,132,8.0,10.0,89,0.00,,,0.00,,2013-01-15 09:02:00,
2013-01-15 03:12:00,66.0,63.0,30.01,SE,132,8.0,10.0,89,0.00,,,0.00,,2013-01-15 09:12:00,
2013-01-15 03:22:00,66.0,63.0,30.01,SE,129,9.0,10.0,89,0.00,,,0.00,,2013-01-15 09:22:00,
2013-01-15 03:33:00,66.0,63.0,30.00,SE,130,7.0,10.0,89,0.00,,,0.00,,2013-01-15 09:33:00,
2013-01-15 03:42:00,66.0,63.0,30.00,SE,130,7.0,10.0,89,0.00,,,0.00,,2013-01-15 09:42:00,
2013-01-15 03:52:00,66.0,63.0,30.00,SE,131,6.0,9.0,89,0.00,,,0.00,,2013-01-15 09:52:00,
2013-01-15 04:02:00,66.0,63.0,29.99,SE,126,8.0,10.0,89,0.00,,,0.00,,2013-01-15 10:02:00,
2013-01-15 04:12:00,66.0,63.0,29.99,SE,126,8.0,10.0,89,0.00,,,0.00,,2013-01-15 10:12:00,
2013-01-15 04:22:00,66.0,63.0,29.99,SE,127,7.0,9.0,89,0.00,,,0.00,,2013-01-15 10:22:00,
2013-01-15 04:32:00,66.0,63.0,30.00,SE,128,5.0,7.0,89,0.00,,,0.00,,2013-01-15 10:32:00,
2013-01-15 04:42:00,66.0,63.0,30.00,SE,128,5.0,7.0,89,0.00,,,0.00,,2013-01-15 10:42:00,
2013-01-15 04:52:00,66.0,63.0,29.99,SE,128,4.0,5.0,89,0.00,,,0.00,,2013-01-15 10:52:00,
2013-01-15 05:02:00,66.0,63.0,30.00,SE,128,3.0,4.0,89,0.00,,,0.00,,2013-01-15 11:02:00,
2013-01-15 05:12:00,66.0,63.0,30.00,SE,128,3.0,4.0,89,0.00,,,0.00,,2013-01-15 11:12:00,
2013-01-15 05:22:00,66.0,63.0,29.99,SE,128,3.0,4.0,89,0.00,,,0.00,,2013-01-15 11:22:00,
2013-01-15 05:33:00,66.0,63.0,30.00,SE,128,2.0,4.0,89,0.00,,,0.00,,2013-01-15 11:33:00,
2013-01-15 05:42:00,66.0,63.0,30.00,SE,128,2.0,4.0,89,0.00,,,0.00,,2013-01-15 11:42:00,
2013-01-15 05:52:00,66.0,63.0,30.01,SE,128,0.0,0.0,89,0.00,,,0.00,,2013-01-15 11:52:00,
2013-01-15 06:03:00,67.0,64.0,30.00,SE,128,0.0,0.0,89,0.00,,,0.00,,2013-01-15 12:03:00,
2013-01-15 06:12:00,67.0,64.0,30.00,SE,128,0.0,0.0,89,0.00,,,0.00,,2013-01-15 12:12:00,
2013-01-15 06:22:00,67.0,64.0,30.00,SE,128,0.0,0.0,89,0.00,,,0.00,,2013-01-15 12:22:00,
2013-01-15 06:33:00,67.0,64.0,30.00,SE,128,0.0,0.0,89,0.00,,,0.00,,2013-01-15 12:33:00,
2013-01-15 06:42:00,67.0,64.0,30.00,SE,128,0.0,0.0,89,0.00,,,0.00,,2013-01-15 12:42:00,
2013-01-15 06:53:00,66.0,63.0,30.01,SE,128,0.0,0.0,89,0.00,,,0.00,,2013-01-15 12:53:00,
2013-01-15 07:03:00,66.0,63.0,30.01,SE,128,0.0,0.0,89,0.00,,,0.00,,2013-01-15 13:03:00,
2013-01-15 07:12:00,66.0,63.0,30.01,SE,128,0.0,0.0,89,0.00,,,0.00,,2013-01-15 13:12:00,
2013-01-15 07:23:00,66.0,63.0,30.01,SE,128,0.0,1.0,89,0.00,,,0.00,,2013-01-15 13:23:00,
2013-01-15 07:33:00,66.0,63.0,30.02,SE,128,0.0,0.0,89,0.00,,,0.00,,2013-01-15 13:33:00,
2013-01-15 07:43:00,66.0,63.0,30.02,SE,128,0.0,0.0,89,0.00,,,0.00,,2013-01-15 13:43:00,
2013-01-15 07:53:00,66.0,63.0,30.02,SE,128,0.0,0.0,89,0.00,,,0.00,,2013-01-15 13:53:00,
2013-01-15 08:02:00,66.0,63.0,30.02,SE,128,3.0,6.0,89,0.00,,,0.00,,2013-01-15 14:02:00,
2013-01-15 08:12:00,66.0,63.0,30.02,SE,128,3.0,6.0,89,0.00,,,0.00,,2013-01-15 14:12:00,
2013-01-15 08:23:00,66.0,63.0,30.03,SE,128,3.0,5.0,89,0.00,,,0.00,,2013-01-15 14:23:00,
2013-01-15 08:33:00,66.0,63.0,30.03,SE,128,3.0,5.0,89,0.00,,,0.00,,2013-01-15 14:33:00,
2013-01-15 08:43:00,66.0,63.0,30.03,SE,128,3.0,5.0,89,0.00,,,0.00,,2013-01-15 14:43:00,
2013-01-15 08:53:00,66.0,63.0,30.03,ESE,123,2.0,5.0,89,0.00,,,0.00,,2013-01-15 14:53:00,
2013-01-15 09:03:00,66.0,63.0,30.03,SE,130,4.0,6.0,89,0.00,,,0.00,,2013-01-15 15:03:00,
2013-01-15 09:12:00,66.0,63.0,30.03,SE,130,4.0,6.0,89,0.00,,,0.00,,2013-01-15 15:12:00,
2013-01-15 09:23:00,66.0,63.0,30.03,SE,139,5.0,7.0,89,0.00,,,0.00,,2013-01-15 15:23:00,
2013-01-15 09:33:00,67.0,64.0,30.03,SE,144,5.0,7.0,89,0.00,,,0.00,,2013-01-15 15:33:00,
2013-01-15 09:43:00,67.0,64.0,30.03,SE,144,5.0,7.0,89,0.00,,,0.00,,2013-01-15 15:43:00,
2013-01-15 09:53:00,67.0,64.0,30.03,SSE,152,5.0,7.0,89,0.00,,,0.00,,2013-01-15 15:53:00,
2013-01-15 10:03:00,67.0,64.0,30.03,SSE,148,1.0,6.0,89,0.00,,,0.00,,2013-01-15 16:03:00,
2013-01-15 10:12:00,67.0,64.0,30.03,SSE,148,1.0,6.0,89,0.00,,,0.00,,2013-01-15 16:12:00,
2013-01-15 10:22:00,67.0,64.0,30.03,SE,146,3.0,5.0,89,0.00,,,0.00,,2013-01-15 16:22:00,
2013-01-15 10:33:00,67.0,64.0,30.02,SSE,151,5.0,6.0,89,0.00,,,0.00,,2013-01-15 16:33:00,
2013-01-15 10:42:00,67.0,64.0,30.02,SSE,151,5.0,6.0,89,0.00,,,0.00,,2013-01-15 16:42:00,
2013-01-15 10:53:00,68.0,65.0,30.02,SSE,153,5.0,7.0,89,0.00,,,0.00,,2013-01-15 16:53:00,
2013-01-15 11:03:00,68.0,65.0,30.01,SSE,151,5.0,8.0,89,0.00,,,0.00,,2013-01-15 17:03:00,
2013-01-15 11:12:00,68.0,65.0,30.01,SSE,151,5.0,8.0,89,0.00,,,0.00,,2013-01-15 17:12:00,
2013-01-15 11:22:00,68.0,65.0,30.01,SSE,158,2.0,5.0,89,0.00,,,0.00,,2013-01-15 17:22:00,
2013-01-15 11:33:00,67.0,64.0,30.00,SSE,159,2.0,4.0,89,0.00,,,0.00,,2013-01-15 17:33:00,
2013-01-15 11:42:00,67.0,64.0,30.00,SSE,159,2.0,4.0,89,0.00,,,0.00,,2013-01-15 17:42:00,
2013-01-15 11:53:00,68.0,65.0,29.99,SSE,166,7.0,8.0,89,0.00,,,0.00,,2013-01-15 17:53:00,
2013-01-15 12:03:00,68.0,65.0,29.99,South,175,7.0,9.0,89,0.00,,,0.00,,2013-01-15 18:03:00,
2013-01-15 12:13:00,68.0,65.0,29.99,South,175,7.0,9.0,89,0.00,,,0.00,,2013-01-15 18:13:00,
2013-01-15 12:23:00,68.0,65.0,29.99,South,175,7.0,9.0,89,0.00,,,0.00,,2013-01-15 18:23:00,
2013-01-15 12:33:00,68.0,65.0,29.98,South,175,5.0,8.0,89,0.00,,,0.00,,2013-01-15 18:33:00,
2013-01-15 12:43:00,68.0,65.0,29.98,South,175,5.0,8.0,89,0.00,,,0.00,,2013-01-15 18:43:00,
2013-01-15 12:53:00,68.0,65.0,29.98,South,175,5.0,8.0,89,0.00,,,0.00,,2013-01-15 18:53:00,
2013-01-15 13:03:00,68.0,65.0,29.97,SSE,161,4.0,6.0,89,0.00,,,0.00,,2013-01-15 19:03:00,
2013-01-15 13:12:00,68.0,65.0,29.97,SSE,161,4.0,6.0,89,0.00,,,0.00,,2013-01-15 19:12:00,
2013-01-15 13:23:00,68.0,65.0,29.96,SSE,161,5.0,7.0,89,0.00,,,0.00,,2013-01-15 19:23:00,
2013-01-15 13:33:00,68.0,65.0,29.96,South,175,5.0,8.0,89,0.00,,,0.00,,2013-01-15 19:33:00,
2013-01-15 13:42:00,68.0,65.0,29.96,South,175,5.0,8.0,89,0.00,,,0.00,,2013-01-15 19:42:00,
2013-01-15 13:53:00,68.0,65.0,29.96,South,190,5.0,10.0,89,0.00,,,0.00,,2013-01-15 19:53:00,
2013-01-15 14:03:00,69.0,66.0,29.96,SSW,193,11.0,17.0,89,0.00,,,0.00,,2013-01-15 20:03:00,
2013-01-15 14:12:00,69.0,66.0,29.96,SSW,193,11.0,17.0,89,0.00,,,0.00,,2013-01-15 20:12:00,
2013-01-15 14:23:00,69.0,65.0,29.95,South,190,10.0,17.0,88,0.00,,,0.00,,2013-01-15 20:23:00,
2013-01-15 14:33:00,69.0,65.0,29.95,South,175,9.0,13.0,88,0.00,,,0.00,,2013-01-15 20:33:00,
2013-01-15 14:43:00,69.0,65.0,29.95,South,175,9.0,13.0,88,0.00,,,0.00,,2013-01-15 20:43:00,
2013-01-15 14:52:00,69.0,65.0,29.95,South,177,7.0,10.0,88,0.00,,,0.00,,2013-01-15 20:52:00,
2013-01-15 15:03:00,69.0,65.0,29.95,South,173,5.0,9.0,88,0.00,,,0.00,,2013-01-15 21:03:00,
2013-01-15 15:13:00,69.0,65.0,29.95,South,173,5.0,9.0,88,0.00,,,0.00,,2013-01-15 21:13:00,
2013-01-15 15:23:00,68.0,64.0,29.96,SSE,153,4.0,6.0,88,0.01,,,0.01,,2013-01-15 21:23:00,
2013-01-15 15:33:00,68.0,64.0,29.96,SSE,163,5.0,7.0,88,0.01,,,0.01,,2013-01-15 21:33:00,
2013-01-15 15:43:00,68.0,64.0,29.96,SSE,163,5.0,7.0,88,0.01,,,0.01,,2013-01-15 21:43:00,
2013-01-15 15:52:00,68.0,64.0,29.96,South,173,5.0,7.0,88,0.01,,,0.01,,2013-01-15 21:52:00,
2013-01-15 16:03:00,68.0,64.0,29.96,SSE,164,5.0,7.0,88,0.01,,,0.01,,2013-01-15 22:03:00,
2013-01-15 16:12:00,68.0,64.0,29.96,SSE,164,5.0,7.0,88,0.01,,,0.01,,2013-01-15 22:12:00,
2013-01-15 16:23:00,68.0,64.0,29.96,SSE,161,5.0,7.0,88,0.00,,,0.01,,2013-01-15 22:23:00,
2013-01-15 16:33:00,68.0,64.0,29.96,SSE,161,5.0,7.0,88,0.00,,,0.01,,2013-01-15 22:33:00,
2013-01-15 16:43:00,68.0,64.0,29.96,SSE,161,5.0,7.0,88,0.00,,,0.01,,2013-01-15 22:43:00,
2013-01-15 16:52:00,68.0,64.0,29.96,SSE,165,5.0,7.0,88,0.00,,,0.01,,2013-01-15 22:52:00,
2013-01-15 17:02:00,68.0,64.0,29.96,SSE,161,6.0,8.0,88,0.00,,,0.01,,2013-01-15 23:02:00,
2013-01-15 17:13:00,68.0,64.0,29.96,SSE,161,6.0,8.0,88,0.00,,,0.01,,2013-01-15 23:13:00,
2013-01-15 17:22:00,68.0,64.0,29.96,SSE,161,6.0,8.0,88,0.00,,,0.01,,2013-01-15 23:22:00,
2013-01-15 17:33:00,68.0,64.0,29.96,SSE,148,6.0,8.0,88,0.00,,,0.01,,2013-01-15 23:33:00,
2013-01-15 17:43:00,68.0,64.0,29.96,SSE,148,6.0,8.0,88,0.00,,,0.01,,2013-01-15 23:43:00,
2013-01-15 17:53:00,68.0,64.0,29.96,SSE,157,5.0,8.0,88,0.00,,,0.01,,2013-01-15 23:53:00,
2013-01-15 18:02:00,68.0,65.0,29.96,SSE,155,6.0,8.0,89,0.00,,,0.01,,2013-01-16 00:02:00,
2013-01-15 18:12:00,68.0,65.0,29.96,SSE,155,6.0,8.0,89,0.00,,,0.01,,2013-01-16 00:12:00,
2013-01-15 18:22:00,68.0,64.0,29.97,SSE,149,7.0,8.0,88,0.00,,,0.01,,2013-01-16 00:22:00,
2013-01-15 18:33:00,68.0,64.0,29.96,SE,135,8.0,10.0,88,0.00,,,0.01,,2013-01-16 00:33:00,
2013-01-15 18:43:00,68.0,64.0,29.96,SE,135,8.0,10.0,88,0.00,,,0.01,,2013-01-16 00:43:00,
2013-01-15 18:52:00,67.0,63.0,29.96,SE,132,8.0,10.0,88,0.00,,,0.01,,2013-01-16 00:52:00,
2013-01-15 19:03:00,67.0,63.0,29.96,SE,137,8.0,10.0,88,0.00,,,0.01,,2013-01-16 01:03:00,
2013-01-15 19:12:00,67.0,63.0,29.96,SE,137,8.0,10.0,88,0.00,,,0.01,,2013-01-16 01:12:00,
2013-01-15 19:22:00,67.0,63.0,29.95,SE,129,7.0,10.0,88,0.00,,,0.01,,2013-01-16 01:22:00,
2013-01-15 19:33:00,67.0,63.0,29.95,SE,128,7.0,9.0,88,0.00,,,0.01,,2013-01-16 01:33:00,
2013-01-15 19:42:00,67.0,63.0,29.95,SE,128,7.0,9.0,88,0.00,,,0.01,,2013-01-16 01:42:00,
2013-01-15 19:52:00,67.0,63.0,29.95,SE,128,6.0,8.0,88,0.00,,,0.01,,2013-01-16 01:52:00,
2013-01-15 20:03:00,67.0,63.0,29.95,SE,126,6.0,9.0,88,0.00,,,0.01,,2013-01-16 02:03:00,
2013-01-15 20:12:00,67.0,63.0,29.95,SE,126,6.0,9.0,88,0.00,,,0.01,,2013-01-16 02:12:00,
2013-01-15 20:22:00,67.0,63.0,29.95,SE,127,6.0,8.0,88,0.00,,,0.01,,2013-01-16 02:22:00,
2013-01-15 20:32:00,67.0,63.0,29.95,SE,135,8.0,10.0,88,0.00,,,0.01,,2013-01-16 02:32:00,
2013-01-15 20:42:00,67.0,63.0,29.95,SE,135,8.0,10.0,88,0.00,,,0.01,,2013-01-16 02:42:00,
2013-01-15 20:52:00,67.0,63.0,29.95,SE,143,9.0,11.0,88,0.00,,,0.01,,2013-01-16 02:52:00,
2013-01-15 21:03:00,68.0,64.0,29.93,SE,137,11.0,13.0,88,0.00,,,0.01,,2013-01-16 03:03:00,
2013-01-15 21:12:00,68.0,64.0,29.93,SE,137,11.0,13.0,88,0.00,,,0.01,,2013-01-16 03:12:00,
2013-01-15 21:22:00,68.0,64.0,29.94,SSE,148,10.0,13.0,88,0.00,,,0.01,,2013-01-16 03:22:00,
2013-01-15 21:32:00,68.0,64.0,29.94,SSE,150,9.0,12.0,88,0.00,,,0.01,,2013-01-16 03:32:00,
2013-01-15 21:43:00,68.0,64.0,29.94,SSE,150,9.0,12.0,88,0.00,,,0.01,,2013-01-16 03:43:00,
2013-01-15 21:52:00,68.0,64.0,29.94,SSE,153,10.0,12.0,88,0.00,,,0.01,,2013-01-16 03:52:00,
2013-01-15 22:02:00,68.0,64.0,29.94,SSE,158,10.0,12.0,88,0.00,,,0.01,,2013-01-16 04:02:00,
2013-01-15 22:12:00,68.0,64.0,29.94,SSE,158,10.0,12.0,88,0.00,,,0.01,,2013-01-16 04:12:00,
2013-01-15 22:22:00,68.0,64.0,29.94,SSE,156,9.0,12.0,88,0.00,,,0.01,,2013-01-16 04:22:00,
2013-01-15 22:32:00,68.0,64.0,29.94,South,180,7.0,11.0,88,0.00,,,0.01,,2013-01-16 04:32:00,
2013-01-15 22:42:00,68.0,64.0,29.94,South,180,7.0,11.0,88,0.00,,,0.01,,2013-01-16 04:42:00,
2013-01-15 22:52:00,68.0,64.0,29.96,SW,217,10.0,17.0,88,0.09,,,0.10,,2013-01-16 04:52:00,
2013-01-15 23:03:00,67.0,63.0,29.96,SW,236,7.0,12.0,87,0.10,,,0.11,,2013-01-16 05:03:00,
2013-01-15 23:12:00,67.0,63.0,29.96,SW,236,7.0,12.0,87,0.10,,,0.11,,2013-01-16 05:12:00,
2013-01-15 23:22:00,67.0,63.0,29.95,SSW,194,7.0,11.0,88,0.10,,,0.11,,2013-01-16 05:22:00,
2013-01-15 23:32:00,67.0,63.0,29.94,SSE,153,6.0,10.0,88,0.13,,,0.14,,2013-01-16 05:32:00,
2013-01-15 23:42:00,67.0,63.0,29.94,SSE,153,6.0,10.0,88,0.13,,,0.14,,2013-01-16 05:42:00,
2013-01-15 23:53:00,66.0,62.0,29.93,SE,132,8.0,10.0,88,0.06,,,0.16,,2013-01-16 05:53:00,